TimeAKST,TemperatureF,Dew PointF,Humidity,Sea Level PressureIn,VisibilityMPH,Wind Direction,Wind SpeedMPH,Gust SpeedMPH,PrecipitationIn,Events,Conditions,WindDirDegrees,DateUTC
12:16 AM,33.8,26.6,75,29.92,10.0,East,12.7,18.4,N/A,,Clear,80,2014-01-26 09:16:00
12:36 AM,32.0,24.8,75,29.91,10.0,East,13.8,23.0,N/A,,Clear,80,2014-01-26 09:36:00
12:56 AM,32.0,24.8,75,29.90,10.0,East,17.3,23.0,N/A,,Clear,80,2014-01-26 09:56:00
1:16 AM,32.0,24.8,75,29.89,10.0,ENE,17.3,23.0,N/A,,Clear,70,2014-01-26 10:16:00
1:36 AM,32.0,24.8,75,29.88,10.0,East,20.7,25.3,N/A,,Clear,80,2014-01-26 10:36:00
1:56 AM,32.0,24.8,75,29.87,10.0,ENE,18.4,25.3,N/A,,Clear,70,2014-01-26 10:56:00
2:16 AM,32.0,24.8,75,29.86,10.0,East,20.7,26.5,N/A,,Clear,80,2014-01-26 11:16:00
2:36 AM,32.0,24.8,75,29.86,10.0,East,21.9,29.9,N/A,,Clear,80,2014-01-26 11:36:00
2:56 AM,30.2,24.8,80,29.85,10.0,East,19.6,23.0,N/A,,Clear,80,2014-01-26 11:56:00
3:16 AM,30.2,24.8,80,29.85,10.0,East,12.7,21.9,N/A,,Clear,90,2014-01-26 12:16:00
3:36 AM,30.2,24.8,80,29.85,10.0,East,16.1,24.2,N/A,,Clear,80,2014-01-26 12:36:00
3:56 AM,30.2,24.8,80,29.85,10.0,ENE,17.3,-,N/A,,Clear,70,2014-01-26 12:56:00
4:16 AM,30.2,24.8,80,29.83,10.0,East,16.1,24.2,N/A,,Clear,80,2014-01-26 13:16:00
4:36 AM,32.0,24.8,75,29.83,10.0,ENE,16.1,21.9,N/A,,Clear,70,2014-01-26 13:36:00
4:56 AM,32.0,24.8,75,29.84,10.0,East,17.3,23.0,N/A,,Clear,90,2014-01-26 13:56:00
5:16 AM,32.0,24.8,75,29.83,10.0,East,16.1,23.0,N/A,,Clear,80,2014-01-26 14:16:00
5:36 AM,32.0,26.6,80,29.83,10.0,East,15.0,23.0,N/A,,Clear,80,2014-01-26 14:36:00
5:56 AM,32.0,24.8,75,29.82,10.0,East,16.1,-,N/A,,Clear,80,2014-01-26 14:56:00
6:16 AM,32.0,26.6,80,29.84,10.0,East,12.7,-,N/A,,Clear,80,2014-01-26 15:16:00
6:36 AM,30.2,24.8,80,29.82,10.0,East,13.8,19.6,N/A,,Clear,80,2014-01-26 15:36:00
6:56 AM,32.0,26.6,80,29.83,10.0,East,11.5,18.4,N/A,,Clear,80,2014-01-26 15:56:00
7:16 AM,30.2,24.8,80,29.85,10.0,East,9.2,-,N/A,,Clear,80,2014-01-26 16:16:00
7:36 AM,30.2,24.8,80,29.82,10.0,NE,9.2,-,N/A,,Clear,50,2014-01-26 16:36:00
7:56 AM,30.2,24.8,80,29.84,10.0,ENE,10.4,-,N/A,,Clear,70,2014-01-26 16:56:00
8:16 AM,32.0,24.8,75,29.83,10.0,ENE,15.0,20.7,N/A,,Clear,70,2014-01-26 17:16:00
8:36 AM,33.8,24.8,70,29.83,10.0,East,15.0,21.9,N/A,,Clear,80,2014-01-26 17:36:00
8:56 AM,33.8,26.6,75,29.83,10.0,East,15.0,25.3,N/A,,Clear,80,2014-01-26 17:56:00
9:16 AM,33.8,24.8,70,29.83,10.0,East,19.6,24.2,N/A,,Clear,80,2014-01-26 18:16:00
9:36 AM,33.8,24.8,70,29.83,10.0,East,17.3,27.6,N/A,,Clear,80,2014-01-26 18:36:00
9:56 AM,33.8,24.8,70,29.84,10.0,East,13.8,24.2,N/A,,Clear,80,2014-01-26 18:56:00
10:16 AM,33.8,24.8,70,29.84,10.0,East,16.1,20.7,N/A,,Clear,80,2014-01-26 19:16:00
10:36 AM,33.8,24.8,70,29.85,10.0,East,15.0,19.6,N/A,,Clear,80,2014-01-26 19:36:00
10:56 AM,33.8,24.8,70,29.86,10.0,East,15.0,19.6,N/A,,Clear,80,2014-01-26 19:56:00
11:16 AM,33.8,24.8,70,29.86,10.0,East,13.8,19.6,N/A,,Clear,80,2014-01-26 20:16:00
11:36 AM,33.8,24.8,70,29.87,10.0,East,12.7,18.4,N/A,,Clear,80,2014-01-26 20:36:00
11:56 AM,33.8,24.8,70,29.88,10.0,East,11.5,-,N/A,,Clear,90,2014-01-26 20:56:00
12:16 PM,33.8,24.8,70,29.89,10.0,East,11.5,19.6,N/A,,Clear,90,2014-01-26 21:16:00
12:36 PM,33.8,24.8,70,29.90,10.0,East,11.5,-,N/A,,Partly Cloudy,90,2014-01-26 21:36:00
12:56 PM,35.6,24.8,65,29.90,10.0,East,13.8,-,N/A,,Clear,90,2014-01-26 21:56:00
1:16 PM,35.6,24.8,65,29.90,10.0,East,17.3,21.9,N/A,,Clear,90,2014-01-26 22:16:00
1:36 PM,33.8,24.8,70,29.90,10.0,East,16.1,24.2,N/A,,Clear,80,2014-01-26 22:36:00
1:56 PM,33.8,24.8,70,29.91,10.0,East,13.8,21.9,N/A,,Clear,80,2014-01-26 22:56:00
2:16 PM,33.8,24.8,70,29.92,10.0,East,12.7,21.9,N/A,,Clear,90,2014-01-26 23:16:00
2:36 PM,33.8,24.8,70,29.91,10.0,East,13.8,19.6,N/A,,Clear,90,2014-01-26 23:36:00
2:56 PM,33.8,24.8,70,29.90,10.0,East,12.7,18.4,N/A,,Clear,90,2014-01-26 23:56:00
3:16 PM,33.8,24.8,70,29.90,10.0,East,11.5,-,N/A,,Clear,80,2014-01-27 00:16:00
3:36 PM,33.8,24.8,70,29.90,10.0,East,13.8,21.9,N/A,,Clear,90,2014-01-27 00:36:00
3:56 PM,33.8,24.8,70,29.91,10.0,East,11.5,-,N/A,,Clear,90,2014-01-27 00:56:00
4:16 PM,33.8,24.8,70,29.91,10.0,East,12.7,-,N/A,,Clear,80,2014-01-27 01:16:00
4:36 PM,33.8,24.8,70,29.92,10.0,East,10.4,-,N/A,,Clear,90,2014-01-27 01:36:00
4:56 PM,33.8,24.8,70,29.92,10.0,East,10.4,-,N/A,,Clear,80,2014-01-27 01:56:00
5:16 PM,33.8,24.8,70,29.92,10.0,East,12.7,-,N/A,,Clear,80,2014-01-27 02:16:00
5:36 PM,33.8,24.8,70,29.92,10.0,East,13.8,-,N/A,,Clear,90,2014-01-27 02:36:00
5:56 PM,33.8,24.8,70,29.93,10.0,ENE,9.2,-,N/A,,Clear,70,2014-01-27 02:56:00
6:16 PM,33.8,24.8,70,29.93,10.0,East,8.1,-,N/A,,Clear,80,2014-01-27 03:16:00
6:36 PM,33.8,24.8,70,29.93,10.0,ENE,8.1,-,N/A,,Clear,70,2014-01-27 03:36:00
6:56 PM,33.8,24.8,70,29.93,10.0,ENE,9.2,-,N/A,,Clear,70,2014-01-27 03:56:00
7:16 PM,32.0,24.8,75,29.94,10.0,ENE,6.9,-,N/A,,Clear,60,2014-01-27 04:16:00
7:36 PM,32.0,24.8,75,29.94,10.0,East,9.2,-,N/A,,Clear,80,2014-01-27 04:36:00
7:56 PM,33.8,24.8,70,29.95,10.0,East,6.9,-,N/A,,Clear,80,2014-01-27 04:56:00
8:16 PM,33.8,24.8,70,29.95,10.0,East,6.9,-,N/A,,Clear,90,2014-01-27 05:16:00
8:36 PM,32.0,24.8,75,29.96,10.0,East,3.5,-,N/A,,Clear,80,2014-01-27 05:36:00
8:56 PM,32.0,24.8,75,29.96,10.0,ENE,8.1,-,N/A,,Clear,60,2014-01-27 05:56:00
9:16 PM,32.0,24.8,75,29.96,10.0,ENE,9.2,-,N/A,,Clear,60,2014-01-27 06:16:00
9:36 PM,30.2,24.8,80,29.96,10.0,East,8.1,-,N/A,,Clear,80,2014-01-27 06:36:00
9:56 PM,30.2,24.8,80,29.97,10.0,Calm,Calm,-,N/A,,Clear,0,2014-01-27 06:56:00
10:16 PM,30.2,24.8,80,29.97,10.0,East,5.8,-,N/A,,Clear,100,2014-01-27 07:16:00
10:36 PM,30.2,23.0,75,29.97,10.0,East,3.5,-,N/A,,Clear,100,2014-01-27 07:36:00
10:56 PM,30.2,23.0,75,29.96,10.0,ENE,6.9,-,N/A,,Clear,70,2014-01-27 07:56:00
11:16 PM,30.2,24.8,80,29.96,10.0,East,8.1,-,N/A,,Clear,90,2014-01-27 08:16:00
11:36 PM,30.2,23.0,75,29.96,10.0,East,6.9,-,N/A,,Clear,80,2014-01-27 08:36:00
11:56 PM,30.2,23.0,75,29.95,10.0,ENE,9.2,-,N/A,,Clear,60,2014-01-27 08:56:00